Weather History for KSDY - November, 2013

Change the Weather History Date:

Monday, November 4, 2013

  Actual Average Record
Temperature  
Mean Temperature 27 °F -  
Max Temperature 35 °F 49 °F 70 °F (1952)
Min Temperature 19 °F 26 °F -12 °F (1919)
Degree Days  
Heating Degree Days 38    
Moisture  
Dew Point 14 °F    
Average Humidity 54    
Maximum Humidity 74    
Minimum Humidity 38    
Precipitation  
Precipitation 0.00 in - - ()
Sea Level Pressure  
Sea Level Pressure 29.95 in    
Wind  
Wind Speed 17 mph (West)    
Max Wind Speed 25 mph    
Max Gust Speed 32 mph    
Visibility 10 miles    
Events      
Averages and records for this station are not official NWS values.
T = Trace of Precipitation, MM = Missing Value Source: NWS Daily Summary

Daily Weather History Graph

Daily Weather History Graph

Search for Another Location

Airport or City:

Trip Planner

Search our weather history database for the weather conditions in past years. The results will help you decide how hot, cold, wet, or windy it might be!

Date:

Astronomy

Nov. 04, 2013 Rise Set
Actual Time 6:46 AM MST 4:33 PM MST
Civil Twilight 6:13 AM MST 5:06 PM MST
Nautical Twilight 5:36 AM MST 5:43 PM MST
Astronomical Twilight 5:00 AM MST 6:19 PM MST
Moon 8:03 AM MST 5:35 PM MST
Length of Visible Light 10h 53m
Length of Day
9h 47m
New Moon, 2% of the Moon is Illuminated
Nov 4
New Moon
Nov 9
First Quarter
Nov 17
Full
Nov 25
Last Quarter
Dec 2
New

Hourly Weather History & Observations

Time (MST) Temp. Windchill Dew Point Humidity Pressure Visibility Wind Dir Wind Speed Gust Speed Precip Events Conditions
12:15 AM 33.8 °F 21.9 °F 21.2 °F 60% 29.76 in 10.0 mi West 21.9 mph 29.9 mph N/A   Mostly Cloudy
12:35 AM 33.8 °F 21.9 °F 21.2 °F 60% 29.76 in 10.0 mi West 21.9 mph 28.8 mph N/A   Mostly Cloudy
12:55 AM 33.8 °F 22.5 °F 21.2 °F 60% 29.78 in 10.0 mi West 19.6 mph 28.8 mph N/A   Overcast
1:15 AM 33.8 °F 22.5 °F 19.4 °F 56% 29.78 in 10.0 mi West 19.6 mph 28.8 mph N/A   Overcast
1:35 AM 33.8 °F 24.8 °F 19.4 °F 56% 29.80 in 10.0 mi West 12.7 mph - N/A   Overcast
1:55 AM 33.8 °F 24.3 °F 19.4 °F 56% 29.81 in 10.0 mi West 13.8 mph 21.9 mph N/A   Overcast
2:15 AM 33.8 °F 22.2 °F 21.2 °F 60% 29.80 in 10.0 mi WNW 20.7 mph 26.5 mph N/A   Overcast
2:35 AM 33.8 °F 21.3 °F 19.4 °F 56% 29.80 in 10.0 mi West 24.2 mph 29.9 mph N/A   Overcast
3:15 AM 32.0 °F 19.8 °F 19.4 °F 60% 29.82 in 10.0 mi West 20.7 mph 26.5 mph N/A   Overcast
3:35 AM 32.0 °F 20.1 °F 19.4 °F 60% 29.82 in 10.0 mi West 19.6 mph 29.9 mph N/A   Overcast
3:55 AM 30.2 °F 16.8 °F 19.4 °F 64% 29.83 in 10.0 mi West 23.0 mph 31.1 mph N/A   Overcast
4:15 AM 30.2 °F 17.4 °F 17.6 °F 60% 29.84 in 10.0 mi WNW 20.7 mph 27.6 mph N/A   Overcast
4:35 AM 30.2 °F 18.5 °F 17.6 °F 60% 29.85 in 10.0 mi WNW 17.3 mph 29.9 mph N/A   Overcast
5:15 AM 30.2 °F 18.5 °F 17.6 °F 60% 29.86 in 10.0 mi West 17.3 mph 23.0 mph N/A   Overcast
5:35 AM 30.2 °F 18.9 °F 17.6 °F 60% 29.87 in 10.0 mi West 16.1 mph 27.6 mph N/A   Overcast
6:15 AM 30.2 °F 18.5 °F 17.6 °F 60% 29.87 in 10.0 mi West 17.3 mph 26.5 mph N/A   Overcast
6:35 AM 30.2 °F 18.9 °F 17.6 °F 60% 29.88 in 10.0 mi WNW 16.1 mph 20.7 mph N/A   Overcast
6:55 AM 30.2 °F 18.5 °F 17.6 °F 60% 29.88 in 10.0 mi West 17.3 mph 26.5 mph N/A   Overcast
7:15 AM 30.2 °F 17.8 °F 17.6 °F 60% 29.89 in 10.0 mi West 19.6 mph 24.2 mph N/A   Overcast
7:35 AM 30.2 °F 16.5 °F 17.6 °F 60% 29.90 in 10.0 mi West 24.2 mph 31.1 mph N/A   Overcast
7:55 AM 28.4 °F 17.5 °F 17.6 °F 64% 29.91 in 10.0 mi WNW 13.8 mph 27.6 mph N/A   Overcast
8:35 AM 30.2 °F 18.1 °F 17.6 °F 60% 29.92 in 10.0 mi West 18.4 mph 31.1 mph N/A   Clear
8:55 AM 30.2 °F 18.9 °F 17.6 °F 60% 29.93 in 10.0 mi West 16.1 mph 26.5 mph N/A   Clear
9:15 AM 30.2 °F 17.1 °F 15.8 °F 55% 29.92 in 10.0 mi West 21.9 mph 29.9 mph N/A   Clear
9:35 AM 32.0 °F 20.1 °F 15.8 °F 51% 29.93 in 10.0 mi West 19.6 mph 29.9 mph N/A   Clear
9:55 AM 33.8 °F 22.2 °F 15.8 °F 48% 29.93 in 10.0 mi West 20.7 mph 29.9 mph N/A   Clear
10:35 AM 33.8 °F 22.8 °F 15.8 °F 48% 29.93 in 10.0 mi West 18.4 mph 31.1 mph N/A   Clear
10:55 AM 33.8 °F 22.2 °F 15.8 °F 48% 29.93 in 10.0 mi West 20.7 mph 31.1 mph N/A   Clear
11:15 AM 35.6 °F 25.5 °F 15.8 °F 44% 29.94 in 10.0 mi West 17.3 mph 27.6 mph N/A   Clear
11:35 AM 35.6 °F 24.8 °F 14.0 °F 41% 29.94 in 10.0 mi West 19.6 mph 28.8 mph N/A   Clear
11:55 AM 35.6 °F 23.4 °F 12.2 °F 38% 29.94 in 10.0 mi West 25.3 mph 32.2 mph N/A   Clear
12:55 PM 33.8 °F 21.9 °F 12.2 °F 41% 29.95 in 10.0 mi WNW 21.9 mph 31.1 mph N/A   Clear
1:15 PM 33.8 °F 21.0 °F 10.4 °F 38% 29.95 in 10.0 mi West 25.3 mph 32.2 mph N/A   Clear
1:35 PM 33.8 °F 21.3 °F 12.2 °F 41% 29.96 in 10.0 mi WNW 24.2 mph 31.1 mph N/A   Clear
1:55 PM 33.8 °F 23.5 °F 12.2 °F 41% 29.96 in 10.0 mi WNW 16.1 mph 26.5 mph N/A   Clear
2:15 PM 33.8 °F 22.2 °F 12.2 °F 41% 29.97 in 10.0 mi West 20.7 mph 27.6 mph N/A   Clear
2:35 PM 33.8 °F 22.5 °F 12.2 °F 41% 29.98 in 10.0 mi West 19.6 mph 26.5 mph N/A   Clear
2:55 PM 33.8 °F 23.9 °F 12.2 °F 41% 29.98 in 10.0 mi West 15.0 mph 21.9 mph N/A   Clear
3:15 PM 33.8 °F 23.2 °F 12.2 °F 41% 29.99 in 10.0 mi West 17.3 mph 23.0 mph N/A   Clear
3:35 PM 33.8 °F 24.3 °F 12.2 °F 41% 29.99 in 10.0 mi West 13.8 mph 24.2 mph N/A   Clear
3:55 PM 33.8 °F 23.5 °F 10.4 °F 38% 29.99 in 10.0 mi West 16.1 mph - N/A   Clear
4:15 PM 32.0 °F 22.5 °F 10.4 °F 41% 30.00 in 10.0 mi WNW 12.7 mph 17.3 mph N/A   Clear
4:35 PM 30.2 °F 20.2 °F 10.4 °F 44% 30.00 in 10.0 mi West 12.7 mph - N/A   Clear
4:55 PM 30.2 °F 21.3 °F 10.4 °F 44% 30.01 in 10.0 mi West 10.4 mph - N/A   Clear
5:35 PM 28.4 °F 20.4 °F 12.2 °F 51% 30.02 in 10.0 mi West 8.1 mph - N/A   Clear
5:55 PM 28.4 °F 20.4 °F 12.2 °F 51% 30.03 in 10.0 mi West 8.1 mph - N/A   Clear
6:15 PM 26.6 °F 19.1 °F 12.2 °F 55% 30.04 in 10.0 mi West 6.9 mph - N/A   Clear
6:35 PM 24.8 °F 17.9 °F 10.4 °F 54% 30.05 in 10.0 mi West 5.8 mph - N/A   Clear
6:55 PM 24.8 °F 17.9 °F 10.4 °F 54% 30.05 in 10.0 mi West 5.8 mph - N/A   Clear
7:15 PM 23.0 °F 15.8 °F 10.4 °F 59% 30.06 in 10.0 mi WSW 5.8 mph - N/A   Clear
7:35 PM 23.0 °F 17.0 °F 10.4 °F 59% 30.07 in 10.0 mi West 4.6 mph - N/A   Clear
8:15 PM 21.2 °F 13.6 °F 10.4 °F 63% 30.07 in 10.0 mi West 5.8 mph - N/A   Clear
8:35 PM 21.2 °F 10.9 °F 10.4 °F 63% 30.08 in 10.0 mi West 9.2 mph - N/A   Clear
8:55 PM 23.0 °F 13.1 °F 10.4 °F 59% 30.09 in 10.0 mi West 9.2 mph - N/A   Clear
9:15 PM 23.0 °F 13.1 °F 10.4 °F 59% 30.10 in 10.0 mi West 9.2 mph - N/A   Clear
9:55 PM 21.2 °F 10.9 °F 10.4 °F 63% 30.11 in 10.0 mi West 9.2 mph - N/A   Clear
10:15 PM 21.2 °F 8.9 °F 12.2 °F 68% 30.10 in 10.0 mi WNW 12.7 mph 17.3 mph N/A   Clear
10:35 PM 21.2 °F 9.5 °F 10.4 °F 63% 30.10 in 10.0 mi WNW 11.5 mph 18.4 mph N/A   Clear
10:55 PM 21.2 °F 10.9 °F 10.4 °F 63% 30.11 in 10.0 mi WNW 9.2 mph - N/A   Clear
11:15 PM 19.4 °F 10.4 °F 12.2 °F 74% 30.12 in 10.0 mi West 6.9 mph - N/A   Clear
11:35 PM 19.4 °F 9.5 °F 10.4 °F 68% 30.12 in 10.0 mi WNW 8.1 mph - N/A   Clear
11:55 PM 19.4 °F 11.5 °F 10.4 °F 68% 30.13 in 10.0 mi WNW 5.8 mph - N/A   Clear